Simultaneous Nadir Overpasses (SNOs) Predictions

Prediction of SNOs between GOES-15 and METOP-A Satellite Orbit:

Table of predicted SNOs for the next 14.0 days since TLE Epoch: 5/31/2013
Index Date Time (GOES-15) GOES-15 Lat,Lon METOP-A Lat,Lon Distance(km) Time Diff (sec)
1 06/01/2013 18:41:51 -0.11,-135.16 0.60,-138.46 375.30 80
2 06/02/2013 18:23:51 -0.11,-135.14 -0.47,-133.45 191.32 80
3 06/04/2013 06:42:51 0.10,-135.06 -0.54,-138.05 340.01 80
4 06/05/2013 06:19:31 0.11,-135.03 0.53,-133.04 225.92 80
5 06/06/2013 18:41:02 -0.10,-135.02 0.45,-137.60 294.35 80
6 06/07/2013 18:17:42 -0.11,-134.98 -0.62,-132.60 271.53 80
7 06/09/2013 06:39:22 0.10,-134.90 -0.39,-137.19 260.64 80
8 06/10/2013 06:16:01 0.11,-134.86 0.68,-132.18 304.49 80
9 06/11/2013 18:37:32 -0.10,-134.84 0.35,-136.74 217.05 80
10 06/12/2013 18:14:12 -0.12,-134.80 -0.79,-131.74 348.15 80
11 06/14/2013 06:35:52 0.11,-134.71 -0.28,-136.32 184.53 80




NCC Satellite Simultaneous Nadir Overpasses (SNOs) Prediction Service
